Location: ?????? ??????
(44.3742°N, 135.2221°E)
Time: 07:36:37
(UTC+00:00)

Cosmos 1331 Rocket - Pass Details

Date: 19 May 2025
Orbit: 746 x 773 km, 74.0° (Epoch: 15 June)

Event Time Altitude Azimuth Distance (km) Brightness Sun altitude
Rises 16:09:33 0° 340° (NNW) 3,224 8.0 -23.5°
Reaches altitude 10° 16:11:57 10° 343° (NNW) 2,291 7.2 -23.4°
Maximum altitude 16:17:08 74° 68° (ENE) 787 4.0 -23.1°
Enters shadow 16:18:57 41° 143° (SE) 1,088 4.5 -22.9°
